{"data":{"norad_id":64576,"epoch":"2026-05-25T05:37:15.141792Z","epoch_age_seconds":44887,"freshness":"FRESH","line1":"1 64576U 25135BA  26145.23420303  .00001344  00000+0  13852-3 0  9992","line2":"2 64576  97.7699 259.7567 0002310  72.9485 287.1986 14.91876034 50468","mean_motion":14.91876034,"eccentricity":0.000231,"inclination_deg":97.7699,"raan_deg":259.7567,"arg_perigee_deg":72.9485,"mean_anomaly_deg":287.1986,"bstar":0.00013852,"rev_number":5046,"period_min":96.522765107975,"perigee_km":590.47604343141,"apogee_km":593.69628653363,"semimajor_km":6970.2231649825,"source":"CELESTRAK","updated_at":"2026-05-25T13:38:04.622750Z"}}